Regional Weather Roundup
Issued by NWS

Home | Current Version | Previous Version | Text Only | Print | Product List | Glossary On
Versions: 1 2 3 4 5 6 7 8 9 10 11 12 13 14 15 16 17 18 19 20 21 22 23 24 25 26 27 28 29 30 31 32 33 34 35 36 37 38 39 40 41 42 43 44 45 46 47 48 49 50
000
ASUS44 KOUN 031110
RWROK

WEATHER ROUNDUP FOR OKLAHOMA
NATIONAL WEATHER SERVICE NORMAN OK
600 AM CDT TUE AUG 03 2021

NOTE: "FAIR" INDICATES FEW OR NO CLOUDS BELOW 12,000 FEET WITH NO
      SIGNIFICANT WEATHER AND/OR OBSTRUCTIONS TO VISIBILITY.

OKZ001>007-009>012-014-015-017-031200-
NORTHWEST OKLAHOMA AND THE PANHANDLE

CITY           SKY/WX    TMP DP  RH WIND       PRES   REMARKS
GAGE           CLEAR     55  53  93 W5        30.13R
GUYMON         MOCLDY    61  55  81 SW3       30.16S
ENID/WOODRING  CLEAR     61  61 100 NW3       30.08R
$$

OKZ016-021>023-033>039-044-045-031200-
SOUTHWEST OKLAHOMA

CITY           SKY/WX    TMP DP  RH WIND       PRES   REMARKS
LAWTON/REGL    CLEAR     62  58  86 CALM      30.07S FOG
LAWTON/FT SILL CLEAR     62  60  91 N6        30.06S
FREDERICK      CLEAR     67  59  75 N9        30.05S
CLINTON        CLEAR     62  58  86 MISG      30.12S
HOBART         CLEAR     61  57  87 N5        30.10S
ALTUS AFB      CLEAR     61  58  89 NW5       30.08R
$$

OKZ018>020-024>031-031200-
CENTRAL OKLAHOMA

CITY           SKY/WX    TMP DP  RH WIND       PRES   REMARKS
OKLAHOMA CITY  CLEAR     67  61  81 N6        30.08R
OKC/WILEY POST CLEAR     67  60  78 N5        30.08R
OKC/TINKER AFB CLEAR     66  62  86 N5        30.06R
STILLWATER     CLEAR     66  61  84 NE7       30.07R
GUTHRIE        CLEAR     61  61 100 CALM      30.08R FOG
$$

OKZ008-013-054>072-031200-
NORTHEAST OKLAHOMA

CITY           SKY/WX    TMP DP  RH WIND       PRES   REMARKS
TULSA          CLEAR     65  63  93 NW3       30.05R
TULSA/JONES    CLEAR     70  65  84 N6        30.05R
PONCA CITY     CLEAR     62  60  93 N3        30.08R
BARTLESVILLE   CLEAR     62  62 100 CALM      30.08S FOG
MUSKOGEE       CLEAR     67  65  93 NE5       30.04S FOG
$$

OKZ032-040>043-046>053-073>077-031200-
SOUTH CENTRAL/SOUTHEAST OKLAHOMA

CITY           SKY/WX    TMP DP  RH WIND       PRES   REMARKS
ARDMORE/DWNTWN PTCLDY    66  63  90 CALM      30.03S FOG
MCALESTER      MOCLDY    67  64  90 CALM      30.03R
$$




USA.gov is the U.S. government's official web portal to all federal, state and local government web resources and services.